Tahlequah, OK

9:34 AM CDT on August 30, 2016 (GMT -0500)
Tahlequah Municipal

Weather History for KTQH - March, 2014

Change the Weather History Date:

Monday, March 31, 2014

  Actual Average (KMKO) Record (KMKO)
Temperature  
Mean Temperature 60 °F -  
Max Temperature 68 °F 66 °F 87 °F (2015)
Min Temperature 51 °F 44 °F 30 °F (2011)
Degree Days  
Heating Degree Days 6    
Growing Degree Days 10 (Base 50)    
Moisture  
Dew Point 47 °F    
Average Humidity 68    
Maximum Humidity 94    
Minimum Humidity 48    
Precipitation  
Precipitation 0.03 in - - ()
Sea Level Pressure  
Sea Level Pressure 29.89 in    
Wind  
Wind Speed 10 mph (SSE)    
Max Wind Speed 20 mph    
Max Gust Speed 26 mph    
Visibility 10 miles    
Events Rain    
Averages and records for this station are not official NWS values.
T = Trace of Precipitation, MM = Missing Value Source: NWS Daily Summary

Daily Weather History Graph

Daily Weather History Graph

Search for Another Location

Airport or City:

Trip Planner

Search our weather history database for the weather conditions in past years. The results will help you decide how hot, cold, wet, or windy it might be!

Date:

Astronomy

Mar. 31, 2014 Rise Set
Actual Time 7:07 AM CDT 7:41 PM CDT
Civil Twilight 6:41 AM CDT 8:06 PM CDT
Nautical Twilight 6:11 AM CDT 8:37 PM CDT
Astronomical Twilight 5:40 AM CDT 9:08 PM CDT
Moon 7:33 AM CDT (3/31) 8:57 PM CDT (3/31)
Length of Visible Light 13h 24m
Length of Day
12h 33m
New Moon, 1% of the Moon is Illuminated
Mar 31
New Moon
Apr 7
First Quarter
Apr 15
Full
Apr 22
Last Quarter
Apr 29
New

Hourly Weather History & Observations

Time (CDT) Temp. Dew Point Humidity Pressure Visibility Wind Dir Wind Speed Gust Speed Precip Events Conditions
12:15 AM 60.8 °F 41.0 °F 48% 29.95 in 10.0 mi SSE 11.5 mph 18.4 mph N/A   Clear
12:35 AM 59.0 °F 41.0 °F 51% 29.95 in 10.0 mi SSE 10.4 mph 16.1 mph N/A   Clear
12:55 AM 59.0 °F 41.0 °F 51% 29.95 in 10.0 mi SSE 10.4 mph - N/A   Clear
1:15 AM 59.0 °F 41.0 °F 51% 29.95 in 10.0 mi SSE 10.4 mph - N/A   Clear
1:35 AM 57.2 °F 41.0 °F 55% 29.95 in 10.0 mi SSE 8.1 mph - N/A   Clear
1:55 AM 57.2 °F 41.0 °F 55% 29.94 in 10.0 mi SSE 9.2 mph - N/A   Clear
2:15 AM 55.4 °F 41.0 °F 58% 29.94 in 10.0 mi SSE 8.1 mph - N/A   Clear
2:35 AM 55.4 °F 41.0 °F 58% 29.93 in 10.0 mi SSE 10.4 mph - N/A   Clear
2:55 AM 55.4 °F 41.0 °F 58% 29.92 in 10.0 mi SSE 10.4 mph - N/A   Clear
3:15 AM 55.4 °F 41.0 °F 58% 29.91 in 10.0 mi SSE 11.5 mph - N/A   Clear
3:35 AM 55.4 °F 39.2 °F 54% 29.90 in 10.0 mi SSE 11.5 mph 17.3 mph N/A   Clear
3:55 AM 55.4 °F 39.2 °F 54% 29.89 in 10.0 mi SSE 10.4 mph 18.4 mph N/A   Clear
4:15 AM 55.4 °F 41.0 °F 58% 29.89 in 10.0 mi SSE 8.1 mph - N/A   Clear
4:35 AM 55.4 °F 41.0 °F 58% 29.88 in 10.0 mi SSE 8.1 mph - N/A   Clear
4:55 AM 55.4 °F 41.0 °F 58% 29.87 in 10.0 mi SSE 10.4 mph 16.1 mph N/A   Clear
5:15 AM 55.4 °F 41.0 °F 58% 29.87 in 10.0 mi SSE 10.4 mph - N/A   Clear
5:35 AM 55.4 °F 41.0 °F 58% 29.87 in 10.0 mi South 10.4 mph - N/A   Clear
5:55 AM 55.4 °F 41.0 °F 58% 29.87 in 10.0 mi SSE 11.5 mph 16.1 mph N/A   Clear
6:15 AM 55.4 °F 42.8 °F 63% 29.87 in 10.0 mi SSE 11.5 mph 18.4 mph N/A   Clear
6:35 AM 55.4 °F 41.0 °F 58% 29.87 in 10.0 mi SSE 15.0 mph 20.7 mph N/A   Clear
6:55 AM 55.4 °F 41.0 °F 58% 29.88 in 10.0 mi South 16.1 mph 20.7 mph N/A   Clear
7:15 AM 55.4 °F 41.0 °F 58% 29.88 in 10.0 mi SSE 12.7 mph 20.7 mph N/A   Clear
7:35 AM 55.4 °F 41.0 °F 58% 29.88 in 10.0 mi SSE 12.7 mph 19.6 mph N/A   Clear
7:55 AM 55.4 °F 41.0 °F 58% 29.89 in 10.0 mi SSE 16.1 mph 20.7 mph N/A   Clear
8:15 AM 55.4 °F 41.0 °F 58% 29.90 in 10.0 mi South 13.8 mph 21.9 mph N/A   Clear
8:35 AM 55.4 °F 41.0 °F 58% 29.88 in 10.0 mi SSE 17.3 mph 24.2 mph N/A   Clear
8:55 AM 55.4 °F 42.8 °F 63% 29.88 in 10.0 mi South 12.7 mph 26.5 mph N/A   Clear
9:15 AM 55.4 °F 42.8 °F 63% 29.90 in 10.0 mi South 12.7 mph 19.6 mph N/A   Clear
9:35 AM 55.4 °F 42.8 °F 63% 29.89 in 10.0 mi South 15.0 mph 25.3 mph N/A   Clear
9:55 AM 55.4 °F 42.8 °F 63% 29.88 in 10.0 mi South 12.7 mph 21.9 mph N/A   Clear
10:10 AM 55.4 °F 42.8 °F 63% 29.88 in 10.0 mi South 16.1 mph 25.3 mph N/A   Clear
10:35 AM 55.4 °F 44.6 °F 67% 29.90 in 10.0 mi South 9.2 mph 17.3 mph N/A   Clear
10:55 AM 53.6 °F 44.6 °F 72% 29.88 in 10.0 mi South 8.1 mph - N/A   Clear
11:15 AM 53.6 °F 46.4 °F 77% 29.91 in 5.0 mi South 6.9 mph - N/A   Haze
11:35 AM 53.6 °F 46.4 °F 77% 29.90 in 7.0 mi SSE 6.9 mph - N/A   Mostly Cloudy
11:55 AM 51.8 °F 46.4 °F 82% 29.89 in 10.0 mi SSE 8.1 mph - 0.01 in Rain Light Rain
12:15 PM 51.8 °F 46.4 °F 82% 29.87 in 10.0 mi SSE 10.4 mph - 0.01 in Rain Rain
12:35 PM 51.8 °F 46.4 °F 82% 29.82 in 10.0 mi ESE 10.4 mph 16.1 mph 0.02 in Rain Light Rain
12:55 PM 51.8 °F 50.0 °F 94% 29.87 in 10.0 mi South 6.9 mph - 0.02 in   Scattered Clouds
1:15 PM 55.4 °F 50.0 °F 82% 29.87 in 10.0 mi SSE 5.8 mph - N/A   Clear
1:35 PM 55.4 °F 50.0 °F 82% 29.87 in 10.0 mi South 5.8 mph - N/A   Clear
1:55 PM 59.0 °F 51.8 °F 77% 29.86 in 10.0 mi South 9.2 mph 17.3 mph N/A   Clear
2:15 PM 62.6 °F 51.8 °F 68% 29.85 in 10.0 mi South 13.8 mph 23.0 mph N/A   Scattered Clouds
2:35 PM 62.6 °F 51.8 °F 68% 29.84 in 10.0 mi South 17.3 mph 25.3 mph N/A   Mostly Cloudy
2:55 PM 62.6 °F 51.8 °F 68% 29.84 in 10.0 mi South 17.3 mph 24.2 mph N/A   Overcast
3:15 PM 62.6 °F 51.8 °F 68% 29.84 in 10.0 mi SSW 19.6 mph 24.2 mph N/A   Overcast
3:35 PM 62.6 °F 51.8 °F 68% 29.84 in 10.0 mi SSW 17.3 mph 25.3 mph N/A   Overcast
3:55 PM 62.6 °F 51.8 °F 68% 29.84 in 10.0 mi SSW 12.7 mph 24.2 mph N/A   Overcast
4:15 PM 62.6 °F 53.6 °F 72% 29.85 in 10.0 mi SSW 16.1 mph 21.9 mph N/A   Mostly Cloudy
4:35 PM 62.6 °F 53.6 °F 72% 29.85 in 10.0 mi South 9.2 mph 17.3 mph N/A   Mostly Cloudy
4:55 PM 64.4 °F 53.6 °F 68% 29.85 in 10.0 mi South 10.4 mph - N/A   Overcast
5:15 PM 64.4 °F 53.6 °F 68% 29.85 in 10.0 mi South 9.2 mph - N/A   Overcast
5:35 PM 66.2 °F 53.6 °F 64% 29.84 in 10.0 mi SSE 9.2 mph - N/A   Mostly Cloudy
5:55 PM 68.0 °F 53.6 °F 60% 29.85 in 10.0 mi South 10.4 mph 17.3 mph N/A   Mostly Cloudy
6:15 PM 66.2 °F 53.6 °F 64% 29.85 in 10.0 mi South 11.5 mph 18.4 mph N/A   Mostly Cloudy
6:35 PM 66.2 °F 53.6 °F 64% 29.85 in 10.0 mi South 12.7 mph 19.6 mph N/A   Scattered Clouds
6:55 PM 64.4 °F 53.6 °F 68% 29.85 in 10.0 mi South 13.8 mph 18.4 mph N/A   Scattered Clouds
7:15 PM 64.4 °F 53.6 °F 68% 29.86 in 10.0 mi South 10.4 mph - N/A   Clear
7:35 PM 62.6 °F 53.6 °F 72% 29.87 in 10.0 mi SSE 8.1 mph - N/A   Clear
7:55 PM 62.6 °F 53.6 °F 72% 29.87 in 10.0 mi SSE 6.9 mph - N/A   Clear
8:15 PM 60.8 °F 53.6 °F 77% 29.87 in 10.0 mi South 6.9 mph - N/A   Clear
8:35 PM 60.8 °F 53.6 °F 77% 29.87 in 10.0 mi SSE 5.8 mph - N/A   Clear
8:55 PM 60.8 °F 53.6 °F 77% 29.88 in 10.0 mi SSE 8.1 mph - N/A   Clear
9:15 PM 60.8 °F 53.6 °F 77% 29.91 in 10.0 mi SSE 4.6 mph - N/A   Scattered Clouds
9:35 PM 60.8 °F 53.6 °F 77% 29.96 in 10.0 mi NW 10.4 mph - N/A   Scattered Clouds
9:55 PM 60.8 °F 53.6 °F 77% 29.97 in 10.0 mi Calm Calm - N/A   Mostly Cloudy
10:15 PM 60.8 °F 53.6 °F 77% 29.96 in 10.0 mi Calm Calm - N/A   Mostly Cloudy
10:35 PM 59.0 °F 53.6 °F 82% 29.96 in 10.0 mi Calm Calm - N/A   Mostly Cloudy
10:55 PM 57.2 °F 53.6 °F 88% 29.97 in 10.0 mi Calm Calm - N/A   Scattered Clouds
11:15 PM 53.6 °F 51.8 °F 94% 29.98 in 10.0 mi Calm Calm - N/A   Scattered Clouds
11:35 PM 55.4 °F 51.8 °F 88% 29.98 in 10.0 mi Calm Calm - N/A   Scattered Clouds
11:55 PM 51.8 °F 50.0 °F 94% 29.99 in 10.0 mi Calm Calm - N/A   Scattered Clouds